Wind_Speed
14 15 15 16 17 18 18 19 20 21 19 19 18 17 16 14 19 21 14 10 16 17 21 23 24 19 16 13 4 1 8 8 8 8 2 13 14 8 2 5 5 3 1 21 33
16 16 16 16 17 17 17 18 19 20 20 19 19 18 18 16 16 13 8 18 19 19 20 25 26 22 19 13 19 12 9 7 10 1 9 12 3 14 20 12 7 7 11 26 32
19 19 19 19 19 18 18 19 19 18 19 21 20 21 20 19 17 11 18 18 19 16 16 22 24 24 22 16 12 17 12 8 13 9 12 1 11 22 16 13 4 8 15 21 31
21 21 22 22 22 22 21 20 21 20 19 20 21 21 22 21 12 4 13 18 17 15 19 24 28 24 23 21 12 18 19 13 11 3 7 11 5 8 18 8 3 3 8 16 24
24 25 25 25 25 25 24 23 23 23 21 20 21 22 22 24 11 20 10 14 20 20 20 25 31 27 26 20 15 21 24 17 5 3 7 16 3 2 20 13 9 9 14 18 21
24 25 25 26 26 27 26 25 25 25 24 23 21 24 24 25 15 22 17 17 14 18 19 25 30 29 22 21 22 17 25 23 18 15 8 12 6 19 20 12 3 10 16 19 20
25 27 27 27 27 27 27 27 26 26 27 26 25 26 29 16 20 19 22 20 20 16 21 19 24 26 20 22 20 23 24 24 27 18 4 20 19 29 27 16 6 11 14 19 18
26 27 27 29 29 29 29 29 27 27 28 28 29 29 32 19 21 26 23 15 20 19 20 20 21 26 24 22 22 27 25 28 30 20 18 22 23 35 24 19 13 9 13 15 16
26 27 28 29 30 32 35 32 31 26 25 28 30 32 30 27 23 20 24 22 15 21 19 22 27 26 22 28 28 30 32 28 25 23 22 18 14 34 31 21 13 12 18 22 19
27 26 27 27 29 32 32 33 30 28 23 23 31 29 23 17 14 17 23 25 21 23 20 28 27 27 30 34 37 31 26 26 29 25 25 23 24 33 29 33 11 23 23 27 30
32 30 29 29 31 31 32 34 36 35 36 29 28 32 27 15 18 17 26 29 24 24 32 34 34 44 43 39 33 26 29 28 25 26 22 27 27 36 45 40 26 14 31 32 20
35 31 29 29 31 29 31 30 32 37 53 42 32 34 33 21 29 24 17 34 37 40 32 29 45 41 36 35 34 34 35 38 27 28 30 34 27 44 41 36 32 21 41 36 20
34 32 30 31 30 28 27 29 29 30 46 29 19 13 20 36 37 32 27 30 42 43 43 45 40 36 36 36 37 38 39 39 31 29 28 31 36 31 34 32 21 20 37 34 21
33 33 34 33 29 27 27 26 26 23 26 25 25 24 24 24 48 33 37 33 42 46 45 45 39 24 39 41 39 42 38 37 34 31 26 30 20 32 40 30 28 21 41 22 29
34 36 34 34 30 26 26 25 22 11 5 14 13 10 18 12 21 36 38 39 46 42 43 51 41 41 38 45 39 39 34 35 37 36 32 35 19 40 37 41 36 29 27 25 33
35 36 35 26 23 25 25 19 15 5 5 12 29 32 23 8 20 16 28 40 39 43 39 46 36 34 46 32 36 33 32 32 34 36 24 37 28 22 43 40 38 38 33 40 39
34 36 33 25 19 21 19 21 8 4 14 19 40 38 31 32 17 15 27 41 43 46 50 39 50 41 28 42 31 37 33 20 16 21 14 28 28 24 26 31 32 40 40 37 34
36 36 24 14 22 24 15 15 11 10 21 31 34 38 29 33 21 20 15 36 42 44 30 38 34 53 42 40 40 43 45 15 9 10 13 31 26 35 34 25 32 33 36 34 41
35 28 15 21 28 22 11 13 17 13 20 24 31 24 29 31 31 39 22 15 35 48 46 37 46 24 48 38 41 43 48 39 20 20 11 26 38 34 37 40 34 32 27 38 38
37 21 10 22 26 12 11 18 18 17 19 18 23 23 27 24 27 31 24 9 8 17 43 47 27 43 36 41 39 44 37 35 34 10 10 19 36 45 37 40 38 34 34 39 39
34 18 9 23 12 12 18 17 21 22 18 18 24 20 23 17 23 23 16 26 15 6 9 26 50 46 36 52 55 43 38 45 33 29 6 5 22 42 41 35 34 38 36 45 45
35 14 5 17 13 15 12 19 20 20 18 20 13 15 18 20 18 20 24 26 28 26 20 11 19 42 50 37 49 38 46 45 33 31 33 26 25 20 18 45 36 41 35 28 45
36 13 10 23 7 14 15 17 17 23 16 22 20 14 20 20 24 15 26 27 33 27 24 16 7 23 39 40 34 56 46 48 39 32 34 15 15 19 19 27 35 40 38 34 25
36 29 32 2 7 9 13 19 21 22 17 14 16 17 22 21 17 24 25 22 38 25 20 19 15 22 17 36 33 48 46 44 37 39 39 32 26 7 8 25 35 34 32 37 34
33 27 26 25 11 6 10 19 18 21 20 15 20 16 16 20 22 13 20 27 39 23 21 24 13 15 31 28 25 28 51 44 48 37 40 36 23 15 9 23 29 28 28 30 40
34 32 30 19 12 9 10 14 17 20 18 20 18 22 12 21 13 24 18 23 26 25 23 24 13 15 19 31 30 30 49 46 43 43 35 35 33 26 18 20 23 24 29 31 32
33 30 29 26 15 13 11 18 22 18 15 17 20 21 22 20 18 20 22 20 23 26 31 22 24 22 5 17 13 10 27 49 45 40 41 35 35 26 27 26 23 28 29 29 31
Wind_Direction
330 325 323 319 314 310 307 305 305 306 306 304 301 294 287 277 260 256 244 235 227 224 213 211 210 207 213 235 171 170 226 246 261 345 166 114 133 145 172 177 151 133 342 159 153
335 331 329 324 320 316 312 306 300 300 302 301 298 294 289 282 272 267 242 227 226 225 220 206 205 207 210 207 211 227 276 263 187 109 125 122 157 133 163 161 197 259 168 158 157
331 328 326 323 319 315 312 308 304 300 296 294 293 291 289 285 281 255 241 228 234 231 218 212 206 206 211 208 189 229 252 262 211 214 279 81 287 158 163 199 235 162 166 165 164
328 324 321 318 314 311 308 305 302 299 296 290 287 286 286 282 276 304 226 229 232 225 215 207 199 200 206 203 191 217 244 257 235 248 161 176 128 170 193 221 229 170 159 168 170
333 329 326 322 317 311 306 302 296 294 291 288 284 279 277 275 295 264 246 231 227 223 216 207 204 197 202 202 208 223 239 240 359 334 331 189 226 183 186 216 220 215 173 167 175
351 349 345 338 329 320 310 302 293 288 286 283 279 275 270 268 275 262 251 242 241 230 220 210 209 196 210 211 214 209 240 249 255 232 229 211 170 149 179 180 250 197 184 170 180
2 355 352 348 344 338 330 314 298 287 280 278 276 271 264 272 265 257 251 233 232 229 220 217 212 187 201 221 219 231 249 251 237 271 229 214 167 145 178 201 245 199 187 176 172
350 347 346 345 344 343 337 332 322 295 281 274 271 269 267 267 251 249 258 244 222 219 215 210 210 192 207 217 225 242 248 236 246 251 245 234 204 169 203 202 206 187 194 191 185
347 344 343 344 341 340 337 336 331 317 291 276 270 267 273 264 254 254 246 251 227 215 207 202 188 192 199 225 235 238 243 248 240 226 225 225 227 201 191 195 174 197 187 194 188
344 342 341 344 342 343 343 342 336 323 314 294 272 267 261 276 259 237 227 228 227 208 200 196 188 210 219 215 223 228 236 235 236 231 222 217 227 190 187 174 197 219 210 195 187
345 340 340 340 342 341 339 340 346 343 328 317 277 262 241 204 201 240 222 214 197 209 207 194 199 211 214 214 222 227 229 227 233 230 231 216 223 191 173 192 193 219 204 211 198
351 341 337 335 337 338 334 345 345 339 323 329 305 270 253 221 219 204 236 204 189 210 200 205 215 210 220 222 220 223 230 239 234 231 218 224 222 183 190 213 230 287 199 201 212
348 347 339 337 333 331 333 337 338 338 332 5 353 318 254 222 234 213 200 227 199 206 203 206 221 210 214 219 220 223 230 236 239 234 232 235 216 212 201 226 208 221 185 189 226
343 346 343 339 329 331 329 331 343 347 333 8 8 2 351 254 229 219 206 223 210 214 209 217 213 219 206 220 216 225 222 230 241 247 258 236 208 213 198 198 226 198 189 227 239
343 342 343 339 333 328 330 344 347 10 315 327 327 308 20 293 247 235 207 200 222 210 209 217 217 209 217 213 217 227 222 229 239 251 261 257 245 213 226 206 210 211 208 213 193
342 340 339 335 330 335 349 352 11 355 265 299 321 329 344 343 253 245 216 204 225 213 223 223 224 217 218 221 219 220 225 230 236 246 259 254 257 241 207 213 210 210 205 199 196
343 337 337 331 343 358 20 28 0 237 301 313 336 330 333 333 306 301 239 210 211 212 226 225 226 223 220 220 212 215 216 226 226 231 237 252 254 242 223 216 217 209 204 213 210
344 338 344 329 3 7 29 360 283 294 315 304 323 314 328 332 319 327 252 225 215 215 221 222 222 219 215 219 212 207 211 205 201 207 234 241 250 249 239 236 218 220 218 210 207
349 345 357 355 359 344 1 327 321 314 317 325 319 315 324 322 323 332 327 266 232 218 223 220 236 225 216 217 214 205 217 220 243 226 202 222 249 253 237 232 231 221 200 205 212
351 349 14 337 338 348 321 299 310 315 317 316 322 323 317 324 324 334 322 350 245 215 225 237 265 229 225 213 223 222 210 214 223 201 219 228 223 236 234 229 229 224 219 203 215
356 1 354 320 320 322 291 309 317 321 309 312 314 315 317 335 330 320 293 309 4 321 243 234 234 238 225 214 217 211 207 209 222 231 184 222 238 238 241 232 218 206 217 217 215
359 21 21 299 335 328 321 322 319 312 308 298 314 314 316 318 317 313 295 288 305 356 326 276 256 236 240 220 216 219 217 207 210 220 234 243 243 291 296 231 213 203 206 204 207
352 5 304 289 326 321 312 319 325 317 337 337 312 323 322 331 324 306 310 304 289 330 327 334 239 236 240 246 229 214 212 216 213 216 234 230 258 290 276 208 204 202 202 208 202
348 351 344 134 241 308 323 325 313 318 318 313 331 324 315 310 323 317 320 305 286 309 341 339 274 246 249 231 223 214 207 210 213 210 227 239 246 264 153 191 192 197 200 209 211
345 344 337 328 314 302 329 304 315 324 323 320 315 301 311 319 318 314 322 305 287 282 342 2 295 263 235 224 223 253 204 205 214 211 217 231 235 231 168 162 183 190 197 195 202
339 336 338 346 313 295 297 302 315 315 320 315 314 317 312 312 314 318 326 324 310 282 325 11 314 321 240 226 245 261 201 199 212 218 225 233 233 211 195 175 170 179 188 179 189
334 336 332 331 329 293 295 314 313 315 311 313 308 307 297 295 306 310 301 298 304 303 305 327 343 348 276 228 253 229 227 200 206 214 221 229 227 200 185 182 188 179 179 174 175
Height
3147 3145 3143 3140 3138 3136 3134 3132 3129 3127 3125 3124 3124 3122 3122 3121 3121 3121 3124 3129 3128 3130 3132 3135 3138 3143 3146 3147 3153 3157 3158 3154 3156 3155 3149 3148 3153 3156 3153 3153 3156 3158 3160 3161 3163
3146 3143 3141 3138 3136 3133 3131 3129 3127 3125 3122 3121 3120 3119 3118 3118 3118 3118 3123 3122 3124 3126 3128 3131 3135 3140 3144 3147 3151 3155 3156 3154 3156 3156 3152 3151 3155 3154 3150 3153 3157 3158 3159 3162 3164
3143 3141 3138 3136 3133 3131 3128 3126 3124 3122 3120 3118 3117 3115 3115 3114 3115 3115 3115 3118 3120 3123 3126 3129 3133 3138 3141 3144 3149 3153 3155 3157 3158 3159 3155 3153 3153 3155 3155 3154 3157 3157 3158 3161 3165
3141 3138 3135 3133 3130 3127 3125 3122 3120 3118 3117 3115 3113 3111 3111 3111 3114 3111 3113 3115 3117 3119 3121 3125 3128 3132 3137 3140 3145 3152 3155 3151 3152 3155 3156 3157 3157 3159 3155 3156 3157 3158 3160 3161 3163
3137 3134 3131 3128 3125 3122 3120 3118 3115 3113 3112 3110 3109 3107 3107 3107 3110 3109 3112 3112 3113 3115 3118 3121 3124 3129 3132 3139 3144 3149 3150 3153 3147 3152 3151 3152 3152 3154 3155 3156 3156 3159 3160 3161 3163
3134 3130 3127 3123 3120 3117 3114 3112 3110 3108 3106 3105 3104 3102 3102 3101 3106 3104 3108 3110 3111 3113 3116 3118 3121 3127 3133 3137 3142 3144 3148 3149 3150 3148 3154 3154 3151 3150 3152 3155 3157 3159 3161 3163 3165
3131 3127 3124 3120 3117 3113 3109 3105 3103 3101 3099 3099 3098 3096 3095 3101 3100 3101 3101 3106 3107 3110 3113 3117 3122 3124 3132 3136 3139 3141 3147 3149 3148 3147 3147 3152 3154 3150 3149 3155 3160 3160 3163 3164 3166
3130 3125 3121 3117 3113 3109 3104 3100 3097 3094 3092 3091 3090 3089 3085 3095 3094 3093 3095 3100 3102 3106 3109 3114 3119 3122 3127 3133 3136 3138 3140 3143 3142 3145 3145 3150 3151 3152 3149 3149 3156 3159 3162 3166 3167
3126 3122 3118 3113 3109 3105 3100 3095 3091 3087 3085 3083 3083 3082 3082 3084 3088 3091 3091 3093 3100 3103 3106 3110 3115 3118 3124 3128 3131 3129 3131 3134 3138 3140 3144 3144 3146 3149 3151 3152 3158 3163 3162 3165 3168
3124 3119 3114 3110 3104 3099 3095 3090 3086 3081 3080 3078 3074 3078 3079 3081 3083 3084 3087 3090 3093 3098 3102 3105 3109 3113 3116 3118 3116 3123 3127 3130 3131 3134 3139 3142 3143 3145 3149 3151 3153 3169 3169 3167 3168
3121 3115 3111 3106 3101 3094 3091 3086 3080 3073 3072 3073 3071 3065 3069 3070 3072 3075 3081 3085 3089 3093 3093 3098 3101 3095 3101 3109 3118 3123 3125 3126 3128 3131 3135 3137 3140 3140 3144 3145 3149 3162 3166 3170 3168
3118 3112 3108 3103 3098 3093 3087 3082 3079 3072 3049 3061 3056 3055 3063 3069 3064 3066 3075 3077 3080 3080 3090 3096 3085 3093 3104 3110 3113 3118 3119 3120 3125 3125 3131 3134 3138 3132 3136 3135 3139 3145 3154 3161 3166
3116 3110 3104 3100 3095 3090 3085 3080 3077 3070 3063 3052 3044 3044 3051 3058 3056 3060 3066 3070 3072 3076 3078 3077 3077 3093 3099 3103 3108 3109 3112 3114 3119 3120 3124 3128 3131 3130 3136 3136 3139 3137 3148 3158 3160
3113 3107 3101 3097 3092 3087 3083 3078 3073 3067 3063 3055 3051 3050 3048 3048 3042 3057 3055 3066 3068 3068 3076 3076 3083 3086 3090 3095 3101 3102 3107 3111 3113 3116 3116 3119 3123 3126 3128 3134 3136 3138 3140 3141 3152
3108 3102 3097 3088 3086 3082 3078 3073 3070 3067 3066 3059 3050 3050 3043 3046 3051 3049 3055 3054 3055 3063 3073 3061 3071 3077 3082 3084 3095 3098 3107 3109 3108 3110 3113 3109 3114 3116 3122 3124 3126 3130 3134 3138 3146
3103 3096 3090 3087 3081 3076 3072 3071 3067 3070 3064 3059 3049 3043 3039 3043 3040 3045 3049 3050 3058 3062 3062 3065 3073 3075 3076 3084 3091 3098 3103 3106 3106 3106 3102 3102 3108 3107 3108 3114 3119 3122 3127 3131 3137
3099 3091 3084 3081 3079 3074 3070 3068 3071 3068 3064 3055 3047 3048 3046 3040 3035 3034 3040 3045 3046 3053 3048 3060 3059 3067 3072 3079 3084 3090 3096 3098 3101 3096 3093 3098 3100 3099 3104 3110 3117 3115 3120 3126 3131
3094 3084 3079 3076 3073 3069 3071 3071 3071 3066 3064 3059 3054 3049 3049 3039 3026 3022 3026 3034 3039 3043 3050 3050 3050 3051 3063 3066 3074 3077 3080 3081 3092 3091 3093 3096 3087 3090 3101 3107 3113 3114 3115 3120 3128
3089 3079 3074 3073 3070 3070 3071 3070 3069 3065 3063 3059 3054 3048 3045 3047 3042 3030 3020 3026 3032 3038 3039 3043 3038 3051 3053 3063 3069 3072 3071 3083 3085 3087 3088 3089 3089 3092 3092 3095 3103 3110 3114 3116 3119
3083 3078 3073 3072 3073 3071 3071 3068 3066 3063 3059 3056 3054 3052 3046 3044 3042 3038 3026 3022 3017 3026 3041 3038 3044 3044 3051 3060 3061 3061 3074 3078 3078 3084 3087 3082 3083 3078 3083 3086 3092 3102 3107 3112 3113
3083 3077 3077 3073 3072 3070 3068 3068 3062 3060 3055 3055 3051 3049 3045 3040 3041 3040 3032 3021 3020 3017 3022 3027 3032 3028 3043 3042 3043 3055 3060 3067 3075 3075 3078 3082 3072 3071 3074 3078 3083 3093 3100 3102 3108
3081 3077 3074 3069 3071 3068 3065 3062 3060 3055 3051 3049 3047 3046 3044 3040 3036 3037 3031 3029 3023 3022 3019 3023 3019 3022 3021 3033 3043 3049 3054 3059 3062 3066 3069 3069 3066 3061 3064 3066 3076 3086 3092 3099 3104
3078 3076 3072 3066 3066 3062 3060 3058 3057 3050 3049 3046 3045 3043 3041 3036 3032 3030 3028 3026 3021 3019 3021 3018 3015 3016 3018 3028 3032 3037 3044 3052 3060 3067 3064 3069 3066 3066 3059 3057 3071 3079 3088 3096 3101
3075 3068 3062 3060 3060 3058 3056 3055 3052 3050 3046 3045 3043 3041 3038 3033 3032 3026 3022 3020 3016 3015 3018 3017 3012 3011 3009 3014 3024 3029 3037 3046 3054 3057 3059 3061 3067 3066 3059 3060 3070 3078 3085 3093 3099
3073 3070 3064 3057 3056 3054 3054 3053 3049 3046 3044 3043 3040 3038 3036 3031 3029 3026 3021 3017 3012 3011 3012 3013 3004 3007 3005 3010 3017 3023 3031 3039 3043 3051 3053 3057 3066 3065 3065 3065 3071 3078 3083 3089 3097
3069 3064 3059 3055 3052 3050 3049 3048 3046 3043 3041 3038 3037 3033 3031 3029 3026 3023 3017 3016 3015 3009 3008 3005 3003 3000 2998 3006 3013 3018 3023 3031 3040 3047 3052 3054 3061 3064 3066 3067 3071 3076 3081 3086 3092
3065 3061 3055 3051 3049 3047 3046 3045 3042 3039 3037 3036 3033 3030 3028 3026 3023 3020 3018 3017 3015 3013 3006 3009 3008 3003 3000 3006 3012 3016 3020 3027 3035 3042 3048 3049 3054 3063 3064 3065 3068 3073 3079 3083 3087